TimeEDT,TemperatureF,Dew PointF,Humidity,Sea Level PressureIn,VisibilityMPH,Wind Direction,Wind SpeedMPH,Gust SpeedMPH,PrecipitationIn,Events,Conditions,WindDirDegrees,DateUTC
12:53 AM,32.0,12.0,44,30.27,10.0,NNW,6.9,-,N/A,,Clear,330,2013-04-04 04:53:00
1:53 AM,33.1,12.9,43,30.26,10.0,NW,8.1,-,N/A,,Clear,320,2013-04-04 05:53:00
2:53 AM,32.0,14.0,48,30.26,10.0,West,3.5,-,N/A,,Clear,260,2013-04-04 06:53:00
3:53 AM,30.0,15.1,54,30.28,10.0,SW,4.6,-,N/A,,Clear,220,2013-04-04 07:53:00
4:53 AM,25.0,17.1,72,30.30,10.0,Calm,Calm,-,N/A,,Clear,0,2013-04-04 08:53:00
5:53 AM,23.0,16.0,74,30.33,10.0,Calm,Calm,-,N/A,,Clear,0,2013-04-04 09:53:00
6:53 AM,23.0,16.0,74,30.36,10.0,Calm,Calm,-,N/A,,Clear,0,2013-04-04 10:53:00
7:53 AM,28.9,19.0,67,30.37,10.0,Calm,Calm,-,N/A,,Clear,0,2013-04-04 11:53:00
8:53 AM,34.0,18.0,52,30.35,10.0,Calm,Calm,-,N/A,,Clear,0,2013-04-04 12:53:00
9:53 AM,37.0,17.1,44,30.34,10.0,Calm,Calm,-,N/A,,Clear,0,2013-04-04 13:53:00
10:53 AM,39.9,18.0,41,30.32,10.0,WSW,8.1,-,N/A,,Clear,250,2013-04-04 14:53:00
11:53 AM,43.0,17.1,35,30.30,10.0,WSW,10.4,-,N/A,,Clear,250,2013-04-04 15:53:00
12:53 PM,46.9,17.1,30,30.25,10.0,Variable,6.9,-,N/A,,Clear,0,2013-04-04 16:53:00
1:53 PM,50.0,14.0,24,30.22,10.0,WSW,10.4,-,N/A,,Clear,250,2013-04-04 17:53:00
2:53 PM,53.1,15.1,22,30.17,10.0,Variable,6.9,-,N/A,,Clear,0,2013-04-04 18:53:00
3:53 PM,54.0,15.1,22,30.12,10.0,SSW,8.1,16.1,N/A,,Clear,210,2013-04-04 19:53:00
4:53 PM,55.9,17.1,22,30.10,10.0,SSW,6.9,-,N/A,,Clear,200,2013-04-04 20:53:00
5:53 PM,55.0,17.1,23,30.07,10.0,SSW,6.9,-,N/A,,Clear,200,2013-04-04 21:53:00
6:53 PM,52.0,19.9,28,30.08,10.0,Variable,4.6,-,N/A,,Clear,0,2013-04-04 22:53:00
7:53 PM,48.0,24.1,39,30.09,10.0,SSE,9.2,18.4,N/A,,Clear,160,2013-04-04 23:53:00
8:53 PM,46.0,25.0,44,30.08,10.0,South,8.1,-,N/A,,Clear,180,2013-04-05 00:53:00
9:53 PM,45.0,25.0,46,30.06,10.0,Variable,6.9,-,N/A,,Clear,0,2013-04-05 01:53:00
10:53 PM,44.1,27.0,51,30.06,10.0,South,5.8,-,N/A,,Clear,170,2013-04-05 02:53:00
11:53 PM,42.1,28.0,58,30.04,10.0,SE,4.6,-,N/A,,Clear,140,2013-04-05 03:53:00